Flag for Canada Weather past 2 weeks in Windsor, Ontario, Canada

Now
55 °F

Overcast.


Feels Like: 53 °F
Forecast: N/A
Wind: 9 mph from North

Location: Windsor Weather Station

Current Time: Sep 30, 2014 at 6:38:17 PM

Latest Report: Sep 30, 2014 at 6:00 PM


Visibility: 15 mi

Pressure: 29.98 "Hg

Humidity: 82%

Dew point: 50 °F

Location of WindsorLocation

Historic Weather in Windsor — Graph

°F

Windsor temperature yesterday

Maximum temperature yesterday: 77 °F (at 4:00 PM)
Minimum temperature yesterday: 50 °F (at 7:00 AM)
Average temperature yesterday: 63 °F

Past Weeks' High & Low Weather Summary

 TemperatureHumidityPressure
High77 °F (Sep 20, 2:00 PM)100% (Sep 16, 12:00 AM)30.45 "Hg (Sep 16, 12:00 AM)
Low43 °F (Sep 17, 6:00 AM)43% (Sep 17, 4:00 PM)29.60 "Hg (Sep 21, 6:00 AM)
Average59 °F79%30.13 "Hg
* Reported Sep 15 5:00 PM — Sep 30 5:00 PM, Windsor, Weather by CustomWeather, © 2014

Note: Actual official high and low records may vary slightly from our data, if they occured in-between our weather recording intervals... More about our weather records

Advertising

Windsor weather history for previous 24 hours

 ConditionsComfort  
Time TempWeatherWind HumidityBarometerVisibility
5:00 PM
Sep 30
57 °FOvercast.9 mph77%29.97 "Hg15 mi
4:00 PM57 °FOvercast.9 mph77%29.96 "Hg15 mi
3:00 PM57 °FOvercast.9 mph77%29.95 "Hg15 mi
2:00 PM59 °FOvercast.10 mph72%29.96 "Hg15 mi
1:00 PM57 °FOvercast.9 mph82%29.96 "Hg15 mi
11:00 AM55 °FPartly sunny.10 mph82%29.96 "Hg15 mi
10:00 AM55 °FDrizzle. Partly sunny.6 mph88%29.96 "Hg10 mi
9:00 AM54 °FOvercast.10 mph94%29.95 "Hg10 mi
8:00 AM54 °FOvercast.7 mph94%29.93 "Hg10 mi
7:00 AM55 °FOvercast.13 mph88%29.90 "Hg15 mi
6:00 AM55 °FMostly cloudy.12 mph94%29.90 "Hg12 mi
5:00 AM57 °FLow clouds.12 mph94%29.88 "Hg12 mi
4:00 AM59 °FSprinkles. Fog.7 mph94%29.87 "Hg5 mi
3:00 AM63 °FSprinkles. Fog.7 mph100%29.87 "Hg4 mi
2:00 AM64 °FMostly cloudy.5 mph88%29.86 "Hg8 mi
1:00 AM64 °FPassing clouds.8 mph94%29.87 "Hg10 mi
12:00 AM63 °FPassing clouds.9 mph94%29.86 "Hg12 mi
11:00 PM
Sep 29
61 °FPassing clouds.3 mph94%29.88 "Hg15 mi
10:00 PM63 °FClear.6 mph88%29.90 "Hg15 mi
9:00 PM63 °FClear.6 mph88%29.89 "Hg15 mi
8:00 PM64 °FPassing clouds.6 mph78%29.90 "Hg15 mi
7:00 PM68 °FPassing clouds.7 mph73%29.90 "Hg15 mi
6:00 PM73 °FPassing clouds.8 mph61%29.90 "Hg15 mi
Weather by CustomWeather, © 2014

See weather overviewHow to use our weather pages